Voltar ao catálogo

STARLINK-30825

AtivoComunicaçõesVLEO
NORAD 58384·PAYLOAD·🇺🇸 United States

Lançado Nov 20, 2023 de Vandenberg Space Force Base

Loading…

Próximas Passagens (próximas 24 horas)

TLE

AtualizadoSource: CelesTrak SupGP

Época: Sep 14, 2026, 20:39 UTC

1 58384C 23178L   26257.86090278  .00030325  00000+0  89577-3 0  2579
2 58384  53.1582 198.0336 0001236  91.2888 334.7402 15.34382244    12

Acompanhe STARLINK-30825 em tempo real com AllMySat

Download on the App Store